Flag for U.S.A. Weather past 2 weeks in Norfolk, Virginia, U.S.A.

75 °F

Partly sunny.

Feels Like: 77 °F
Forecast: 62 / 77 °F
Wind: 12 mph from Southwest

Location: Norfolk Naval Air Station

Current Time: Oct 13, 2015 at 1:13:09 PM

Latest Report: Oct 13, 2015 at 12:59 PM

Visibility: 10 mi

Pressure: 29.67 "Hg

Humidity: 58%

Dew point: 59 °F

Location of NorfolkLocation

Historic Weather in Norfolk — Graph


Norfolk temperature yesterday

Maximum temperature yesterday: 73 °F (at 1:59 PM)
Minimum temperature yesterday: 54 °F (at 2:59 AM)
Average temperature yesterday: 64 °F

Past Weeks' High & Low Weather Summary

High84 °F (Sep 29, 1:59 PM)94% (Sep 30, 5:59 AM)30.16 "Hg (Sep 30, 5:59 AM)
Low54 °F (Oct 12, 2:59 AM)50% (Oct 8, 2:59 PM)29.67 "Hg (Oct 13, 7:59 AM)
Average68 °F80%29.96 "Hg
* Reported Sep 28 11:59 AM — Oct 13 11:59 AM, Norfolk, Weather by CustomWeather, © 2015

Note: Actual official high and low records may vary slightly from our data, if they occured in-between our weather recording intervals... More about our weather records


Norfolk weather history for previous 24 hours

Time TempWeatherWind HumidityBarometerVisibility
11:59 AM
Tue, Oct 13
75 °FPartly sunny.14 mph60%29.68 "Hg10 mi
10:59 AM73 °FScattered clouds.13 mph62%29.68 "Hg10 mi
9:59 AM71 °FScattered clouds.13 mph66%29.68 "Hg10 mi
8:59 AM67 °FScattered clouds.12 mph76%29.68 "Hg9 mi
7:59 AM64 °FPassing clouds.10 mph84%29.67 "Hg9 mi
6:59 AM63 °FPassing clouds.7 mph87%29.70 "Hg9 mi
5:59 AM63 °FClear.8 mph87%29.70 "Hg9 mi
4:59 AM64 °FClear.8 mph84%29.70 "Hg10 mi
3:59 AM64 °FClear.7 mph81%29.70 "Hg10 mi
2:59 AM65 °FPassing clouds.8 mph78%29.72 "Hg10 mi
1:59 AM65 °FPassing clouds.7 mph78%29.73 "Hg10 mi
12:59 AM65 °FPassing clouds.8 mph81%29.74 "Hg10 mi
11:59 PM
Mon, Oct 12
66 °FPassing clouds.7 mph81%29.75 "Hg10 mi
10:59 PM66 °FPassing clouds.5 mph84%29.75 "Hg10 mi
9:59 PM66 °FPassing clouds.6 mph81%29.77 "Hg10 mi
8:59 PM67 °FPassing clouds.3 mph79%29.78 "Hg10 mi
7:59 PM67 °FPassing clouds.6 mph76%29.78 "Hg10 mi
6:59 PM68 °FPartly sunny.3 mph76%29.78 "Hg10 mi
5:59 PM69 °FScattered clouds.5 mph70%29.79 "Hg10 mi
4:59 PM70 °FBroken clouds.6 mph66%29.78 "Hg10 mi
3:59 PM72 °FScattered clouds.6 mph59%29.80 "Hg10 mi
2:59 PM72 °FScattered clouds.7 mph59%29.83 "Hg10 mi
1:59 PM73 °FPassing clouds.7 mph55%29.84 "Hg10 mi
Weather by CustomWeather, © 2015

See weather overviewHow to use our weather pages